Current weather by "City, St" or "zip code"  
 
Advertise Here

Current Conditions: Middlesboro, Middlesboro-Bell County Airport, KY

Mostly Cloudy


53.0 F

Last Updated on Jan 27 2021, 1:55 pm EST
Humidity: 54%
Wind Speed: NE 6.9 mph
Barometer 29.98 in
Dewpoint: 36.5 F
Visibility: 10.00 mi
Precip: --
Heat Index: NA
Wind Chill: 51 F
Current conditions at:

Middlesboro, Middlesboro-Bell County Airport, KY (K1A6)

Lat: 36.61056 Lon: 83.73722

Local Radar Image active severe weather and emergency alerts image image weather storm and storm spotter reports image weather observation monitoring service image
Local
Radar
Active
Alerts
Storm Reports Obs
Monitoring

Sign-up For Email & Text Message Weather Alert Notification Services


Advertise Here

Observation History for Middlesboro, Middlesboro-Bell County Airport, KY


Time Wind
(mph)
Vis
(mi)
Weather Precip (in) Temperature (F) Relative
Humidity
Wind
Chill
(F)
Heat
Index
(F)
Pressure
Air Dwpt altimeter
(in)
sea level
(mb)
Rmks
1:55 pm EST NE 6.9 10.00 Mostly Cloudy -- 53.0 36.5 54% 51 NA 29.98 M
1:35 pm EST E 4.6 10.00 Partly Cloudy -- 55.0 36.9 52% 54 NA 29.97 M
12:55 pm EST N 0.0 10.00 Mostly Cloudy -- 52.0 34.7 53% NA NA 30.03 M
12:35 pm EST N 0.0 10.00 Fair -- 52.0 36.0 55% NA NA 30.05 M
11:55 am EST N 0.0 10.00 Fair -- 49.0 36.7 63% NA NA 30.06 M
10:55 am EST W 3.5 10.00 Fair -- 45.0 36.5 71% NA NA 30.07 M
9:55 am EST E 4.6 10.00 Fair -- 43.0 35.8 76% 40 NA 30.08 M
9:35 am EST N 0.0 10.00 Fair -- 42.0 35.6 80% NA NA 30.08 M
8:55 am EST N 0.0 10.00 Fair -- 41.0 35.8 81% NA NA 30.08 M
8:35 am EST N 0.0 10.00 Partly Cloudy -- 40.0 36.0 85% NA NA 30.08 M
7:55 am EST N 0.0 10.00 Partly Cloudy -- 40.0 35.2 85% NA NA 30.08 M
6:55 am EST N 4.6 10.00 Overcast -- 41.0 36.1 84% 38 NA 30.09 M
6:35 am EST N 6.9 10.00 Overcast -- 41.0 36.1 83% 36 NA 30.11 M
5:55 am EST N 4.6 10.00 Mostly Cloudy -- 41.0 36.0 82% 38 NA 30.11 M
5:35 am EST N 6.9 10.00 Mostly Cloudy -- 42.0 35.8 80% 38 NA 30.10 M
4:55 am EST N 9.2 10.00 Overcast -- 42.0 36.5 80% 36 NA 30.09 M
4:35 am EST NE 8.1 10.00 Overcast -- 43.0 37.6 82% 38 NA 30.09 M
3:55 am EST NE 5.8 10.00 Overcast -- 43.0 37.9 82% 39 NA 30.08 M
2:55 am EST N 0.0 10.00 Overcast -- 44.0 38.7 82% NA NA 30.07 M
2:35 am EST N 8.1 10.00 Overcast -- 44.0 39.2 83% 39 NA 30.07 M
1:55 am EST N 5.8 10.00 Overcast -- 44.0 40.1 85% 41 NA 30.06 M
12:55 am EST N 4.6 10.00 Overcast -- 46.0 41.0 82% 44 NA 30.03 M
12:35 am EST N 8.1 10.00 Overcast -- 47.0 40.8 79% 43 NA 30.03 M
11:55 pm EST N 3.5 10.00 Overcast -- 45.0 41.7 88% NA NA 30.02 M

Regional Weather Observation


Middlesboro, Middlesboro-Bell County Airport, KY (K1A6)

Mostly Cloudy
53.0 F

Harlan, KY (KI35)

Partly Cloudy
50.0 F

London, London-Corbin Airport-Magee Field, KY (KLOZ)

Mostly Cloudy
42.0 F

Jacksboro Campbell County Airport, TN (KJAU)

Fair
55.0 F

Lee County Airport, VA (K0VG)

A Few Clouds
55.0 F

Scott Municipal Airport, TN (KSCX)

A Few Clouds
46.0 F